Weather History for Peru, IN

Change the Weather History Date:

Wednesday, October 10, 2012

  Actual Average Record
Temperature  
Mean Temperature 44 °F -  
Max Temperature 53 °F 63 °F 85 °F (2010)
Min Temperature 35 °F 44 °F 30 °F (2000)
Degree Days  
Heating Degree Days 21    
Moisture  
Dew Point 39 °F    
Average Humidity 80    
Maximum Humidity 100    
Minimum Humidity 37    
Precipitation  
Precipitation 0.03 in - - ()
Sea Level Pressure  
Sea Level Pressure 30.01 in    
Wind  
Wind Speed 14 mph (WNW)    
Max Wind Speed 22 mph    
Max Gust Speed 32 mph    
Visibility 10 miles    
Events Rain    
Averages and records for this station are not official NWS values.
T = Trace of Precipitation, MM = Missing Value Source: NWS Daily Summary

Daily Weather History Graph

Daily Weather History Graph

Search for Another Location

Airport:

Trip Planner

Search our weather history database for the weather conditions in past years. The results will help you decide how hot, cold, wet, or windy it might be!

Date:

Astronomy

Oct. 10, 2012 Rise Set
Actual Time 7:50 AM EDT 7:11 PM EDT
Civil Twilight 7:23 AM EDT 7:38 PM EDT
Nautical Twilight 6:51 AM EDT 8:10 PM EDT
Astronomical Twilight 6:20 AM EDT 8:42 PM EDT
Moon 2:25 AM EDT (10/10) 4:15 PM EDT (10/10)
Length of Visible Light 12h 15m
Length of Day
11h 20m
Waning Crescent, 27% of the Moon is Illuminated
Oct 10
Waning Crescent
Oct 15
New
Oct 21
First Quarter
Oct 29
Full
Nov 6
Last Quarter

Hourly Weather History & Observations

Time (EDT) Temp. Windchill Dew Point Humidity Pressure Visibility Wind Dir Wind Speed Gust Speed Precip Events Conditions
12:55 AM 52.9 °F - 41.9 °F 66% 29.88 in 10.0 mi SW 13.8 mph - N/A   Overcast
1:49 AM 53.6 °F - 42.8 °F 67% 29.89 in 10.0 mi West 19.6 mph 25.3 mph N/A   Light Drizzle
1:55 AM 52.9 °F - 44.1 °F 72% 29.89 in 10.0 mi WNW 20.7 mph 25.3 mph 0.00 in   Light Drizzle
2:03 AM 50.0 °F - 46.4 °F 87% 29.90 in 10.0 mi NW 18.4 mph 29.9 mph N/A Rain Light Rain
2:18 AM 48.2 °F - 46.4 °F 93% 29.92 in 10.0 mi NW 15.0 mph - N/A Rain Light Rain
2:46 AM 46.4 °F 39.8 °F 44.6 °F 93% 29.93 in 10.0 mi NW 16.1 mph - N/A Rain Light Rain
2:49 AM 46.4 °F 40.4 °F 44.6 °F 93% 29.93 in 10.0 mi NW 13.8 mph - N/A Rain Light Rain
2:53 AM 46.4 °F 40.4 °F 44.6 °F 93% 29.93 in 10.0 mi NW 13.8 mph - N/A Rain Light Rain
2:55 AM 46.0 °F 40.2 °F 44.2 °F 93% 29.93 in 10.0 mi NW 12.7 mph - 0.02 in Rain Light Rain
3:01 AM 46.4 °F 41.5 °F 44.6 °F 93% 29.93 in 10.0 mi NW 10.4 mph - N/A Rain Light Rain
3:06 AM 46.4 °F 41.9 °F 44.6 °F 93% 29.93 in 10.0 mi NW 9.2 mph - N/A Rain Light Rain
3:12 AM 46.4 °F 41.5 °F 44.6 °F 93% 29.93 in 10.0 mi NW 10.4 mph - N/A   Light Drizzle
3:15 AM 46.4 °F 41.5 °F 44.6 °F 93% 29.93 in 10.0 mi NW 10.4 mph - N/A   Overcast
3:17 AM 46.4 °F 41.1 °F 44.6 °F 93% 29.93 in 10.0 mi NW 11.5 mph - N/A   Light Drizzle
3:25 AM 44.6 °F 38.1 °F 44.6 °F 100% 29.93 in 9.0 mi NW 13.8 mph - N/A   Light Drizzle
3:37 AM 44.6 °F 39.7 °F 44.6 °F 100% 29.93 in 7.0 mi NW 9.2 mph - N/A   Light Drizzle
3:54 AM 44.6 °F 37.4 °F 42.8 °F 93% 29.93 in 9.0 mi NW 16.1 mph - N/A   Light Drizzle
3:55 AM 44.4 °F 37.2 °F 43.2 °F 95% 29.93 in 9.0 mi NW 16.1 mph - 0.01 in Rain Light Rain
3:59 AM 44.6 °F 37.8 °F 42.8 °F 93% 29.93 in 9.0 mi NW 15.0 mph - N/A Rain Light Rain
4:00 AM 44.6 °F 38.1 °F 42.8 °F 93% 29.93 in 9.0 mi WNW 13.8 mph - N/A Rain Light Rain
4:10 AM 44.6 °F 39.7 °F 42.8 °F 93% 29.93 in 10.0 mi WNW 9.2 mph - N/A   Overcast
4:16 AM 44.6 °F 40.2 °F 42.8 °F 93% 29.93 in 10.0 mi WNW 8.1 mph - N/A   Overcast
4:55 AM 44.1 °F 37.4 °F 42.3 °F 93% 29.94 in 10.0 mi WNW 13.8 mph - 0.00 in   Overcast
5:04 AM 44.6 °F 37.4 °F 41.0 °F 87% 29.94 in 10.0 mi WNW 16.1 mph - N/A   Overcast
5:17 AM 42.8 °F 36.6 °F 41.0 °F 93% 29.95 in 10.0 mi WNW 11.5 mph - N/A   Overcast
5:54 AM 42.8 °F 37.0 °F 41.0 °F 93% 29.96 in 10.0 mi WNW 10.4 mph - N/A   Overcast
6:26 AM 42.8 °F 35.8 °F 41.0 °F 93% 29.98 in 10.0 mi WNW 13.8 mph - N/A   Overcast
6:49 AM 42.8 °F 36.2 °F 39.2 °F 87% 29.99 in 10.0 mi West 12.7 mph - N/A   Overcast
6:55 AM 42.3 °F 35.1 °F 39.9 °F 91% 29.99 in 10.0 mi West 13.8 mph - N/A   Overcast
7:55 AM 41.0 °F 33.9 °F 38.8 °F 92% 30.01 in 10.0 mi WNW 12.7 mph - N/A   Mostly Cloudy
8:55 AM 41.2 °F 34.1 °F 38.8 °F 91% 30.04 in 10.0 mi WNW 12.7 mph - N/A   Mostly Cloudy
9:55 AM 41.2 °F 33.4 °F 38.1 °F 89% 30.06 in 10.0 mi WNW 15.0 mph - N/A   Mostly Cloudy
10:30 AM 42.8 °F 35.1 °F 37.4 °F 81% 30.06 in 10.0 mi West 16.1 mph - N/A   Mostly Cloudy
10:55 AM 44.4 °F 37.9 °F 38.1 °F 79% 30.09 in 10.0 mi West 13.8 mph - N/A   Mostly Cloudy
12:12 PM 46.4 °F 39.0 °F 33.8 °F 62% 30.11 in 10.0 mi WNW 19.6 mph - N/A   Mostly Cloudy
12:55 PM 47.8 °F - 31.5 °F 53% 30.11 in 10.0 mi West 19.6 mph 27.6 mph N/A   Mostly Cloudy
1:55 PM 48.4 °F - 30.0 °F 49% 30.12 in 10.0 mi West 18.4 mph 26.5 mph N/A   Mostly Cloudy
2:55 PM 48.4 °F - 26.8 °F 43% 30.12 in 10.0 mi WNW 21.9 mph 32.2 mph N/A   Scattered Clouds
3:55 PM 50.5 °F - 27.1 °F 40% 30.13 in 10.0 mi WNW 19.6 mph - N/A   Clear
4:55 PM 51.3 °F - 25.5 °F 37% 30.13 in 10.0 mi West 21.9 mph 26.5 mph N/A   Clear
5:55 PM 50.7 °F - 26.1 °F 38% 30.14 in 10.0 mi WNW 18.4 mph - N/A   Clear
6:55 PM 48.2 °F - 28.4 °F 46% 30.17 in 10.0 mi WNW 10.4 mph - N/A   Clear
7:55 PM 43.0 °F 38.8 °F 29.5 °F 59% 30.19 in 10.0 mi West 6.9 mph - N/A   Clear
8:55 PM 41.2 °F - 29.3 °F 63% 30.20 in 10.0 mi Calm Calm - N/A   Clear
9:55 PM 35.1 °F 31.0 °F 29.1 °F 79% 30.22 in 10.0 mi SSW 4.6 mph - N/A   Clear
10:55 PM 36.1 °F 33.5 °F 28.9 °F 75% 30.23 in 10.0 mi SSW 3.5 mph - N/A   Clear
11:55 PM 35.2 °F 31.2 °F 28.8 °F 77% 30.23 in 10.0 mi South 4.6 mph - N/A   Clear